Miscellaneous Local Product
Issued by NWS Hastings, NE

Home | Current Version | Previous Version | Graphics & Text | Print | Product List | Glossary On
Versions: 1 2 3 4 5 6 7 8 9 10 11 12 13 14 15 16 17 18 19 20 21 22 23 24 25 26 27 28 29 30 31 32 33 34 35 36 37 38 39 40 41 42 43 44 45 46 47 48 49 50
000
AXUS43 KGID 021802
MISGRI

GID CWA HOURLY WEATHER ROUNDUP
NATIONAL WEATHER SERVICE HASTINGS NE
100 PM CDT SAT MAY 02 2015

NOTE: "FAIR" INDICATES FEW OR NO CLOUDS BELOW 12,000 FEET WITH NO
SIGNIFICANT WEATHER AND/OR OBSTRUCTIONS TO VISIBILITY.

...SOUTH CENTRAL NEBRASKA...

CITY           SKY/WX    TMP DP  RH WIND       PRES   REMARKS
GRAND ISLAND   SUNNY     79  50  36 SW9       29.85F
HASTINGS       SUNNY     79  53  40 SW8       29.85F
KEARNEY        SUNNY     81  50  34 SW8       29.85F
ORD            SUNNY     78  49  35 S6        29.82F
YORK           MOSUNNY   75  57  53 S10G20    29.87F
AURORA         SUNNY     78  52  40 S8        29.86F
LEXINGTON      SUNNY     78  52  40 S12       29.85F
HOLDREGE       SUNNY     79  48  33 S12       29.86F
HEBRON         MOSUNNY   74  52  46 S13G18    29.90F

...NEBRASKA PANHANDLE...

CITY           SKY/WX    TMP DP  RH WIND       PRES   REMARKS
CHADRON        SUNNY     76  43  30 SW3       29.80F
ALLIANCE       SUNNY     79  34  19 NW16G23   29.84F
SCOTTSBLUFF    SUNNY     78  34  20 W12G21    29.87F
SIDNEY         SUNNY     76  36  23 NW10G21   29.91F

...WESTERN AND NORTH CENTRAL NEBRASKA...

CITY           SKY/WX    TMP DP  RH WIND       PRES   REMARKS
VALENTINE      SUNNY     79  48  33 S16       29.80F
AINSWORTH      SUNNY     77  48  35 S9G16     29.83F
ONEILL         SUNNY     78  51  39 S12G17    29.84F
BROKEN BOW     SUNNY     78  50  37 S9        29.85F
IMPERIAL       SUNNY     79  49  34 W8        29.87F
NORTH PLATTE   SUNNY     78  53  41 SE12G17   29.84F
MCCOOK         SUNNY     82  48  30 S8        29.85F

...EASTERN NEBRASKA...

CITY           SKY/WX    TMP DP  RH WIND       PRES   REMARKS
NORFOLK        SUNNY     73  56  54 S14G22    29.85F
SO SIOUX CITY  MOSUNNY   75  53  46 S21G28    29.87F
TEKAMAH        LGT RAIN  73  55  53 S25       29.89F
COLUMBUS       SUNNY     72  55  56 S16G23    29.89F
ALBION         SUNNY     75  52  44 S10       29.85F
OMAHA EPPLEY   PTSUNNY   66  54  65 SE20      29.92F
OFFUTT AFB     PTSUNNY   65  55  70 SE16G23   29.93F
MILLARD        MOSUNNY   64  54  71 SE13G22   29.93F
LINCOLN        MOSUNNY   69  55  60 S15G24    29.90F
NEBRASKA CITY  CLOUDY    59  52  79 S18       29.96F
BEATRICE       MOSUNNY   68  55  62 S12G20    29.93S
FALLS CITY     LGT RAIN  56  52  86 SE10      29.97F

...NORTHERN KANSAS...

CITY           SKY/WX    TMP DP  RH WIND       PRES   REMARKS
GOODLAND       SUNNY     77  47  34 S7        29.90F
HILL CITY      SUNNY     80  51  36 S6        29.87F
NORTON         CLEAR     81  43  26 S7        29.86S
PHILLIPSBURG   SUNNY     82  48  30 S8        29.87F
SMITH CENTER   SUNNY     82  48  30 SW10G18   29.87F
BELOIT         SUNNY     81  52  36 S14G22    29.87F
HAYS           SUNNY     82  50  32 S15G23    29.88F
RUSSELL        SUNNY     82  51  34 S22G29    29.88F
CONCORDIA      SUNNY     78  55  44 S22G30    29.90F
SALINA         SUNNY     81  54  39 S17G28    29.92F
TOPEKA         PTSUNNY   72  52  49 S14       29.98F



USA.gov is the U.S. government's official web portal to all federal, state and local government web resources and services.